Time,TemperatureF,DewpointF,PressureIn,WindDirection,WindDirectionDegrees,WindSpeedMPH,WindSpeedGustMPH,Humidity,HourlyPrecipIn,Conditions,Clouds,dailyrainin,SolarRadiationWatts/m^2,SoftwareType,DateUTC
2013-01-12 00:00:00,7.9,2.7,30.56,SSE,148,0.0,1.0,79,0.00,CLR,SKC,0.00,0.0,WeatherDisplay:10.37,2013-01-12 07:00:00,
2013-01-12 00:15:00,6.8,2.2,30.56,SSE,148,1.0,2.0,81,0.00,CLR,SKC,0.00,0.0,WeatherDisplay:10.37,2013-01-12 07:15:00,
2013-01-12 00:30:00,6.2,1.3,30.56,SSE,148,0.0,2.0,80,0.00,CLR,SKC,0.00,0.0,WeatherDisplay:10.37,2013-01-12 07:30:00,
2013-01-12 00:45:00,3.3,-1.5,30.57,SSE,148,1.0,2.0,80,0.00,CLR,SKC,0.00,0.0,WeatherDisplay:10.37,2013-01-12 07:45:00,
2013-01-12 01:00:00,3.8,-0.7,30.57,SSE,148,2.0,3.0,81,0.00,CLR,SKC,0.00,0.0,WeatherDisplay:10.37,2013-01-12 08:00:00,
2013-01-12 01:15:00,4.4,-0.4,30.57,SSE,148,2.0,3.0,80,0.00,CLR,SKC,0.00,0.0,WeatherDisplay:10.37,2013-01-12 08:15:00,
2013-01-12 01:30:00,5.7,0.6,30.56,ESE,123,2.0,4.0,79,0.00,CLR,SKC,0.00,0.0,WeatherDisplay:10.37,2013-01-12 08:30:00,
2013-01-12 01:45:00,6.0,0.9,30.57,ESE,115,0.0,3.0,79,0.00,CLR,SKC,0.00,0.0,WeatherDisplay:10.37,2013-01-12 08:45:00,
2013-01-12 02:00:00,5.4,0.6,30.57,ESE,115,0.0,1.0,80,0.00,CLR,SKC,0.00,0.0,WeatherDisplay:10.37,2013-01-12 09:00:00,
2013-01-12 02:15:00,5.6,1.0,30.58,ESE,115,0.0,1.0,81,0.00,CLR,SKC,0.00,0.0,WeatherDisplay:10.37,2013-01-12 09:15:00,
2013-01-12 02:30:00,5.3,0.7,30.59,ESE,115,0.0,1.0,81,0.00,CLR,SKC,0.00,0.0,WeatherDisplay:10.37,2013-01-12 09:30:00,
2013-01-12 02:45:00,3.6,-1.0,30.59,ESE,115,0.0,3.0,81,0.00,CLR,SKC,0.00,0.0,WeatherDisplay:10.37,2013-01-12 09:45:00,
2013-01-12 03:00:00,4.0,0.0,30.59,ESE,115,0.0,2.0,83,0.00,CLR,SKC,0.00,0.0,WeatherDisplay:10.37,2013-01-12 10:00:00,
2013-01-12 03:15:00,3.6,-0.2,30.59,ESE,115,1.0,1.0,84,0.00,CLR,SKC,0.00,0.0,WeatherDisplay:10.37,2013-01-12 10:15:00,
2013-01-12 03:30:00,3.4,-0.3,30.59,ESE,115,1.0,2.0,84,0.00,CLR,SKC,0.00,0.0,WeatherDisplay:10.37,2013-01-12 10:30:00,
2013-01-12 03:45:00,3.0,-0.8,30.59,ESE,115,0.0,2.0,84,0.00,CLR,SKC,0.00,0.0,WeatherDisplay:10.37,2013-01-12 10:45:00,
2013-01-12 04:00:00,3.5,-0.2,30.59,ESE,115,0.0,2.0,84,0.00,CLR,SKC,0.00,0.0,WeatherDisplay:10.37,2013-01-12 11:00:00,
2013-01-12 04:15:00,5.7,2.1,30.59,ESE,115,0.0,1.0,85,0.00,CLR,SKC,0.00,0.0,WeatherDisplay:10.37,2013-01-12 11:15:00,
2013-01-12 04:30:00,6.8,3.2,30.59,ESE,115,0.0,0.0,85,0.00,CLR,SKC,0.00,0.0,WeatherDisplay:10.37,2013-01-12 11:30:00,
2013-01-12 04:45:00,6.6,2.8,30.59,ESE,115,0.0,1.0,84,0.00,CLR,SKC,0.00,0.0,WeatherDisplay:10.37,2013-01-12 11:45:00,
2013-01-12 05:00:00,8.3,4.7,30.59,ESE,115,0.0,1.0,85,0.00,CLR,SKC,0.00,0.0,WeatherDisplay:10.37,2013-01-12 12:00:00,
2013-01-12 05:15:00,9.3,5.7,30.59,SE,127,1.0,4.0,85,0.00,CLR,SKC,0.00,0.0,WeatherDisplay:10.37,2013-01-12 12:15:00,
2013-01-12 05:30:00,9.7,5.8,30.59,SE,135,0.0,2.0,84,0.00,CLR,SKC,0.00,0.0,WeatherDisplay:10.37,2013-01-12 12:30:00,
2013-01-12 05:45:00,6.6,2.3,30.59,SE,141,0.0,3.0,82,0.00,CLR,SKC,0.00,0.0,WeatherDisplay:10.37,2013-01-12 12:45:00,
2013-01-12 06:00:00,2.7,-1.5,30.60,SSE,147,1.0,3.0,82,0.00,CLR,SKC,0.00,0.0,WeatherDisplay:10.37,2013-01-12 13:00:00,
2013-01-12 06:15:00,1.8,-1.9,30.61,SSE,147,0.0,3.0,84,0.00,CLR,SKC,0.00,0.0,WeatherDisplay:10.37,2013-01-12 13:15:00,
2013-01-12 06:30:00,2.2,-1.3,30.62,SSE,147,1.0,3.0,85,0.00,CLR,SKC,0.00,0.0,WeatherDisplay:10.37,2013-01-12 13:30:00,
2013-01-12 06:45:00,3.5,0.2,30.62,SE,131,3.0,4.0,86,0.00,CLR,SKC,0.00,0.0,WeatherDisplay:10.37,2013-01-12 13:45:00,
2013-01-12 07:00:00,4.5,1.0,30.64,ESE,116,0.0,4.0,85,0.00,CLR,SKC,0.00,0.0,WeatherDisplay:10.37,2013-01-12 14:00:00,
2013-01-12 07:15:00,6.2,3.0,30.64,ESE,116,0.0,1.0,86,0.00,OVC,SKC,0.00,0.0,WeatherDisplay:10.37,2013-01-12 14:15:00,
2013-01-12 07:30:00,7.3,4.0,30.64,ESE,116,0.0,1.0,86,0.00,OVC,SKC,0.00,0.0,WeatherDisplay:10.37,2013-01-12 14:30:00,
2013-01-12 07:45:00,7.1,3.5,30.65,ESE,116,0.0,2.0,85,0.00,OVC,SKC,0.00,0.0,WeatherDisplay:10.37,2013-01-12 14:45:00,
2013-01-12 08:00:00,6.5,2.9,30.65,ESE,121,0.0,2.0,85,0.00,SCT,SKC,0.00,11.0,WeatherDisplay:10.37,2013-01-12 15:00:00,
2013-01-12 08:15:00,6.1,2.3,30.66,ESE,121,0.0,2.0,84,0.00,BKN,SKC,0.00,23.0,WeatherDisplay:10.37,2013-01-12 15:15:00,
2013-01-12 08:30:00,4.0,0.2,30.67,ESE,121,0.0,1.0,84,0.00,SCT,SKC,0.00,42.0,WeatherDisplay:10.37,2013-01-12 15:30:00,
2013-01-12 08:45:00,5.0,1.7,30.68,ESE,121,0.0,1.0,86,0.00,SCT,SKC,0.00,60.0,WeatherDisplay:10.37,2013-01-12 15:45:00,
2013-01-12 09:00:00,6.4,3.1,30.68,ESE,121,0.0,1.0,86,0.00,SCT,SKC,0.00,79.0,WeatherDisplay:10.37,2013-01-12 16:00:00,
2013-01-12 09:15:00,8.3,5.0,30.69,ESE,121,0.0,0.0,86,0.00,SCT,SKC,0.00,109.0,WeatherDisplay:10.37,2013-01-12 16:15:00,
2013-01-12 09:30:00,8.8,4.9,30.69,ESE,121,0.0,1.0,84,0.00,SCT,SKC,0.00,121.0,WeatherDisplay:10.37,2013-01-12 16:30:00,
2013-01-12 09:45:00,9.6,5.8,30.70,ESE,121,0.0,1.0,84,0.00,SCT,SKC,0.00,144.0,WeatherDisplay:10.37,2013-01-12 16:45:00,
2013-01-12 10:00:00,11.3,7.1,30.70,ESE,121,0.0,1.0,83,0.00,SCT,SKC,0.00,149.0,WeatherDisplay:10.37,2013-01-12 17:00:00,
2013-01-12 10:15:00,11.9,7.2,30.70,ESE,121,0.0,2.0,81,0.00,SCT,SKC,0.00,190.0,WeatherDisplay:10.37,2013-01-12 17:15:00,
2013-01-12 10:30:00,11.5,7.0,30.70,ESE,118,1.0,3.0,82,0.00,SCT,SKC,0.00,236.0,WeatherDisplay:10.37,2013-01-12 17:30:00,
2013-01-12 10:45:00,10.1,5.4,30.70,ESE,115,0.0,3.0,81,0.00,SCT,SKC,0.00,241.0,WeatherDisplay:10.37,2013-01-12 17:45:00,
2013-01-12 11:00:00,10.0,5.3,30.70,ESE,115,0.0,2.0,81,0.00,FEW,SKC,0.00,301.0,WeatherDisplay:10.37,2013-01-12 18:00:00,
2013-01-12 11:15:00,12.2,7.2,30.70,ESE,115,0.0,1.0,80,0.00,CLR,SKC,0.00,383.0,WeatherDisplay:10.37,2013-01-12 18:15:00,
2013-01-12 11:30:00,14.0,8.4,30.70,ESE,115,0.0,1.0,78,0.00,CLR,SKC,0.00,413.0,WeatherDisplay:10.37,2013-01-12 18:30:00,
2013-01-12 11:45:00,12.7,6.9,30.69,ESE,108,1.0,3.0,77,0.00,CLR,SKC,0.00,374.0,WeatherDisplay:10.37,2013-01-12 18:45:00,
2013-01-12 12:00:00,12.2,6.9,30.70,ENE,65,1.0,4.0,79,0.00,CLR,SKC,0.00,417.0,WeatherDisplay:10.37,2013-01-12 19:00:00,
2013-01-12 12:15:00,12.7,7.4,30.69,NNE,24,0.0,3.0,79,0.00,CLR,SKC,0.00,464.0,WeatherDisplay:10.37,2013-01-12 19:15:00,
2013-01-12 12:30:00,12.8,7.2,30.68,NNE,19,0.0,3.0,78,0.00,CLR,SKC,0.00,482.0,WeatherDisplay:10.37,2013-01-12 19:30:00,
2013-01-12 12:45:00,13.4,7.8,30.68,NNE,19,0.0,2.0,78,0.00,CLR,SKC,0.00,545.0,WeatherDisplay:10.37,2013-01-12 19:45:00,
2013-01-12 13:00:00,13.0,7.4,30.68,NNE,19,1.0,3.0,78,0.00,CLR,SKC,0.00,503.0,WeatherDisplay:10.37,2013-01-12 20:00:00,
2013-01-12 13:15:00,13.7,7.8,30.67,NNE,19,1.0,2.0,77,0.00,FEW,SKC,0.00,408.0,WeatherDisplay:10.37,2013-01-12 20:15:00,
2013-01-12 13:30:00,13.3,7.4,30.68,North,9,2.0,4.0,77,0.00,CLR,SKC,0.00,538.0,WeatherDisplay:10.37,2013-01-12 20:30:00,
2013-01-12 13:45:00,13.2,7.7,30.68,North,5,1.0,3.0,78,0.00,CLR,SKC,0.00,469.0,WeatherDisplay:10.37,2013-01-12 20:45:00,
2013-01-12 14:00:00,14.9,9.0,30.68,NW,321,1.0,3.0,77,0.00,CLR,SKC,0.00,545.0,WeatherDisplay:10.37,2013-01-12 21:00:00,
2013-01-12 14:15:00,14.4,8.8,30.68,SSE,168,1.0,5.0,78,0.00,FEW,SKC,0.00,304.0,WeatherDisplay:10.37,2013-01-12 21:15:00,
2013-01-12 14:30:00,14.5,8.6,30.68,SSW,202,2.0,4.0,77,0.00,FEW,SKC,0.00,225.0,WeatherDisplay:10.37,2013-01-12 21:30:00,
2013-01-12 14:45:00,14.8,8.9,30.69,West,275,3.0,6.0,77,0.00,FEW,SKC,0.00,251.0,WeatherDisplay:10.37,2013-01-12 21:45:00,
2013-01-12 15:00:00,13.0,7.7,30.69,WNW,288,0.0,4.0,79,0.00,FEW,SKC,0.00,250.0,WeatherDisplay:10.37,2013-01-12 22:00:00,
2013-01-12 15:15:00,15.0,9.7,30.69,SW,228,1.0,4.0,79,0.00,CLR,SKC,0.00,350.0,WeatherDisplay:10.37,2013-01-12 22:15:00,
2013-01-12 15:30:00,15.9,9.7,30.69,SSW,203,3.0,6.0,76,0.00,CLR,SKC,0.00,244.0,WeatherDisplay:10.37,2013-01-12 22:30:00,
2013-01-12 15:45:00,16.2,8.8,30.69,SSW,206,3.0,5.0,72,0.00,CLR,SKC,0.00,206.0,WeatherDisplay:10.37,2013-01-12 22:45:00,
2013-01-12 16:00:00,16.3,8.2,30.69,SSW,201,1.0,7.0,70,0.00,CLR,SKC,0.00,160.0,WeatherDisplay:10.37,2013-01-12 23:00:00,
2013-01-12 16:15:00,16.0,6.7,30.69,SSW,201,2.0,7.0,66,0.00,CLR,SKC,0.00,120.0,WeatherDisplay:10.37,2013-01-12 23:15:00,
2013-01-12 16:30:00,15.6,7.2,30.69,South,189,3.0,8.0,69,0.00,FEW,SKC,0.00,70.0,WeatherDisplay:10.37,2013-01-12 23:30:00,
2013-01-12 16:45:00,14.9,7.2,30.69,SSW,193,0.0,6.0,71,0.00,BKN,SKC,0.00,32.0,WeatherDisplay:10.37,2013-01-12 23:45:00,
2013-01-12 17:00:00,13.9,6.5,30.70,South,191,0.0,2.0,72,0.00,SCT,SKC,0.00,23.0,WeatherDisplay:10.37,2013-01-13 00:00:00,
2013-01-12 17:15:00,12.2,5.8,30.71,WSW,253,0.0,3.0,75,0.00,CLR,SKC,0.00,12.0,WeatherDisplay:10.37,2013-01-13 00:15:00,
2013-01-12 17:30:00,11.6,5.8,30.71,WSW,253,0.0,1.0,77,0.00,OVC,SKC,0.00,0.0,WeatherDisplay:10.37,2013-01-13 00:30:00,
2013-01-12 17:45:00,10.5,4.7,30.71,WSW,253,0.0,1.0,77,0.00,OVC,SKC,0.00,0.0,WeatherDisplay:10.37,2013-01-13 00:45:00,
2013-01-12 18:00:00,10.4,4.7,30.72,SSW,210,0.0,2.0,77,0.00,CLR,SKC,0.00,0.0,WeatherDisplay:10.37,2013-01-13 01:00:00,
2013-01-12 18:15:00,10.8,5.0,30.72,SSW,193,0.0,2.0,77,0.00,CLR,SKC,0.00,0.0,WeatherDisplay:10.37,2013-01-13 01:15:00,
2013-01-12 18:30:00,11.5,5.1,30.73,SSW,193,0.0,1.0,75,0.00,CLR,SKC,0.00,0.0,WeatherDisplay:10.37,2013-01-13 01:30:00,
2013-01-12 18:45:00,12.1,5.4,30.73,SSW,193,0.0,1.0,74,0.00,CLR,SKC,0.00,0.0,WeatherDisplay:10.37,2013-01-13 01:45:00,
2013-01-12 19:00:00,12.3,5.3,30.72,SSW,193,0.0,1.0,73,0.00,CLR,SKC,0.00,0.0,WeatherDisplay:10.37,2013-01-13 02:00:00,
2013-01-12 19:15:00,12.2,5.2,30.73,SSW,193,0.0,1.0,73,0.00,CLR,SKC,0.00,0.0,WeatherDisplay:10.37,2013-01-13 02:15:00,
2013-01-12 19:30:00,11.9,5.2,30.73,SSW,193,0.0,1.0,74,0.00,CLR,SKC,0.00,0.0,WeatherDisplay:10.37,2013-01-13 02:30:00,
2013-01-12 19:45:00,11.4,4.7,30.73,SSW,193,0.0,3.0,74,0.00,CLR,SKC,0.00,0.0,WeatherDisplay:10.37,2013-01-13 02:45:00,
2013-01-12 20:00:00,10.5,3.9,30.73,SSW,193,0.0,4.0,74,0.00,CLR,SKC,0.00,0.0,WeatherDisplay:10.37,2013-01-13 03:00:00,
2013-01-12 20:15:00,9.7,3.4,30.73,SSW,193,0.0,2.0,75,0.00,CLR,SKC,0.00,0.0,WeatherDisplay:10.37,2013-01-13 03:15:00,
2013-01-12 20:30:00,10.2,4.1,30.73,SSW,193,0.0,1.0,76,0.00,CLR,SKC,0.00,0.0,WeatherDisplay:10.37,2013-01-13 03:30:00,
2013-01-12 20:45:00,9.3,3.0,30.73,SSW,193,0.0,1.0,75,0.00,CLR,SKC,0.00,0.0,WeatherDisplay:10.37,2013-01-13 03:45:00,
2013-01-12 21:00:00,7.7,1.7,30.73,SSW,193,0.0,1.0,76,0.00,CLR,SKC,0.00,0.0,WeatherDisplay:10.37,2013-01-13 04:00:00,
2013-01-12 21:15:00,8.1,2.7,30.74,SSW,193,0.0,1.0,78,0.00,CLR,SKC,0.00,0.0,WeatherDisplay:10.37,2013-01-13 04:15:00,
2013-01-12 21:30:00,8.5,3.1,30.74,SSW,193,0.0,1.0,78,0.00,CLR,SKC,0.00,0.0,WeatherDisplay:10.37,2013-01-13 04:30:00,
2013-01-12 21:45:00,8.5,2.8,30.74,SSW,193,0.0,2.0,77,0.00,CLR,SKC,0.00,0.0,WeatherDisplay:10.37,2013-01-13 04:45:00,
2013-01-12 22:15:00,8.2,2.7,30.75,SSW,193,0.0,2.0,78,0.00,CLR,SKC,0.00,0.0,WeatherDisplay:10.37,2013-01-13 05:15:00,
2013-01-12 22:30:00,6.4,1.0,30.76,SSW,193,0.0,2.0,78,0.00,CLR,SKC,0.00,0.0,WeatherDisplay:10.37,2013-01-13 05:30:00,
2013-01-12 22:45:00,6.0,1.2,30.74,SSW,193,0.0,1.0,80,0.00,CLR,SKC,0.00,0.0,WeatherDisplay:10.37,2013-01-13 05:45:00,
2013-01-12 23:00:00,5.9,1.6,30.75,SSW,193,0.0,0.0,82,0.00,CLR,SKC,0.00,0.0,WeatherDisplay:10.37,2013-01-13 06:00:00,
2013-01-12 23:15:00,5.4,1.1,30.76,SSW,193,0.0,1.0,82,0.00,CLR,SKC,0.00,0.0,WeatherDisplay:10.37,2013-01-13 06:15:00,
2013-01-12 23:30:00,5.4,0.8,30.77,SSW,193,0.0,0.0,81,0.00,CLR,SKC,0.00,0.0,WeatherDisplay:10.37,2013-01-13 06:30:00,
2013-01-12 23:45:00,5.7,1.4,30.77,SSW,193,0.0,1.0,82,0.00,CLR,SKC,0.00,0.0,WeatherDisplay:10.37,2013-01-13 06:45:00,